Regional Weather Roundup
Issued by NWS

Home | Current Version | Previous Version | Graphics & Text | Print | Product List | Glossary On
Versions: 1 2 3 4 5 6 7 8 9 10 11 12 13 14 15 16 17 18 19 20 21 22 23 24 25 26 27 28 29 30 31 32 33 34 35 36 37 38 39 40 41 42 43 44 45 46 47 48 49 50
000
ASUS43 KLMK 171702
RWRKY
KENTUCKY REGIONAL WEATHER ROUNDUP
NATIONAL WEATHER SERVICE LOUISVILLE KY
100 PM EDT FRI APR 17 2015

NOTE "FAIR" INDICATES FEW OR NO CLOUDS BELOW 12,000 FEET
WITH NO SIGNIFICANT WEATHER AND/OR OBSTRUCTIONS TO VISIBILITY.

KYZ001>023-026-027-061>063-070>075-171800-
WESTERN AND SOUTH CENTRAL KENTUCKY

CITY           SKY/WX    TMP DP  RH WIND       PRES   REMARKS
PADUCAH        CLOUDY    72  62  71 SE7       30.07F
HENDERSON      PTSUNNY   70  61  73 NE8       30.08S
OWENSBORO      CLOUDY    72  62  70 SE5       30.10F
HOPKINSVILLE   CLOUDY    68  60  77 E8        30.09F
BOWLING GREEN  PTSUNNY   70  60  70 NE3       30.11F
GLASGOW        NOT AVBL
$$

KYZ024-025-028>034-038-045-046-053-171800-
NORTH CENTRAL KENTUCKY

CITY           SKY/WX    TMP DP  RH WIND       PRES   REMARKS
LOUISVILLE/SDF PTSUNNY   73  59  61 CALM      30.09F
LOUISVILLE/LOU PTSUNNY   73  59  61 CALM      30.10F
FORT KNOX      PTSUNNY   70  58  66 VRB3      30.09F
$$

KYZ035>037-039>044-047>052-055>060-089>105-171800-
NORTHEAST KENTUCKY

CITY           SKY/WX    TMP DP  RH WIND       PRES   REMARKS
LEXINGTON      PTSUNNY   69  60  73 VRB3      30.12F
COVINGTON      PTSUNNY   69  52  54 N3        30.12F
FRANKFORT      PTSUNNY   70  59  68 CALM      30.10F
$$

KYZ054-064>069-076>088-106>120-171800-
SOUTHEAST KENTUCKY

CITY           SKY/WX    TMP DP  RH WIND       PRES   REMARKS
JACKSON        PTSUNNY   68  56  65 CALM      30.13F
LONDON         PTSUNNY   68  55  63 CALM      30.12F
SOMERSET       NOT AVBL
MIDDLESBORO    NOT AVBL
MONTICELLO     CLOUDY    69  60  73 N3        30.15F
$$




USA.gov is the U.S. government's official web portal to all federal, state and local government web resources and services.